GFSSE_prec_radar_099.txt.gz
Reflectivity
-20 -20 -20 -20 -20 -20 -20 -20 -20 -20 -20 -20 -20 -20 -20 -20 -20 -20 -20 -20 -20 -20 -20 -20 -20 -20 -20 -20 -20 -20 -20 -20 -20 -10 -3 -20 -20 -20 -20 -20 -20 -20 -8
-20 -20 -20 -20 -20 -20 -20 -20 -20 -20 -20 -20 -20 -20 -20 -20 -20 -20 -20 -20 -20 -20 -20 -20 -20 -20 -20 -20 -20 -20 -20 18 -20 -20 -20 -20 -17 3 -16 -20 -20 -20 -20
-20 -20 -20 -20 -20 -20 -20 -20 -20 -20 -20 -20 -20 -20 -20 -20 -20 -20 -20 -20 -20 -20 -20 -20 -20 -20 -20 -20 -20 -20 -20 -20 -20 -20 -20 -20 -20 1 -20 -20 -20 -20 6
-20 -20 -20 -20 -20 -20 -20 -20 -20 -20 -20 -20 -20 -20 -20 -20 -20 -20 -20 -20 -20 -20 -20 -20 -6 -15 -20 -20 -20 -20 -20 -20 -20 -20 -20 -20 -20 23 5 -9 -19 -4 -20
-20 -20 -20 -20 -20 -20 -20 -20 -20 -20 -20 -20 -20 -20 -20 -20 -20 -20 -20 -20 -20 -20 14 -20 -15 -20 -20 -20 -20 -20 -20 -20 -20 -20 -20 -20 -20 -3 8 2 -0 -20 -20
-20 -20 -20 -20 -20 -20 -20 -20 -20 -20 -20 -20 -20 -20 -20 -20 -20 -20 -20 -20 -20 -20 -20 5 -4 -20 -20 -20 -20 -20 -20 -20 -20 -20 -20 -20 -20 15 -19 -20 -20 -20 -7
-20 -20 -20 -20 -20 -20 -20 -20 -20 -20 -20 -20 -20 -20 -20 -20 -20 -20 -20 -20 -20 -20 -20 8 -20 -20 -20 -20 -20 -20 -20 -20 -20 -20 -20 -20 -20 7 5 -18 -20 -20 -20
-20 -20 -20 -20 -20 -20 -20 -20 -20 -20 -20 -20 -17 -20 -20 -20 -20 -20 -20 -20 -20 -20 -20 -20 -20 -20 -20 -20 -20 -20 -20 -20 -20 -16 -8 -20 7 16 13 -13 -20 -20 -20
-20 -20 -20 -20 -20 -20 -20 -20 -20 -20 -20 -20 -19 -20 -20 -20 -20 -20 -20 -20 -20 -20 -20 -18 -11 -8 -18 -4 22 -20 -20 -20 -20 -20 -20 -7 29 27 10 -20 -20 -20 -20
-20 -20 -20 -20 -20 -20 -20 -20 -20 -20 -20 -17 16 11 -9 -20 -20 -20 34 34 -20 -20 -20 16 20 25 33 27 -4 -16 -20 -20 -20 13 22 -11 10 16 -2 -20 -20 -20 5
-20 -20 -20 -20 -20 -20 -20 -20 -20 -20 -20 14 16 9 -20 -20 -20 -20 -20 -12 -20 -20 3 -1 -20 29 8 28 19 29 -13 -20 -20 -20 -20 -20 -19 4 6 8 10 7 18
-18 -20 -20 -20 -20 -20 -20 -20 -20 -20 -20 -20 -13 7 -20 -20 -20 -20 -20 -20 10 10 -19 -20 -16 14 21 23 33 28 25 6 -20 -20 -20 -20 -20 16 7 -20 -20 3 14
-20 -20 -20 -20 -20 -20 -20 -20 -20 -20 -20 -20 -20 -20 -20 -20 -20 -20 -20 -20 -20 -20 -20 7 26 10 7 27 31 33 7 -8 -20 7 -20 -20 -20 -14 -9 -20 -20 -11 15
-20 -20 -20 -20 -20 -20 -20 -20 -20 -20 -20 -20 -20 -20 -20 -20 -20 -20 -20 -20 -20 -20 -20 2 23 -16 -7 12 14 8 17 14 -3 -20 -20 -20 -20 -20 5 -19 -14 16 11
-20 -20 -20 -20 -20 -20 -20 -20 -20 -20 -20 -20 -20 -20 -20 -20 -20 -20 -20 -20 -20 -20 -20 -3 28 -20 -20 21 27 31 20 -20 -2 -8 -20 -20 -20 -20 -20 -17 17 4 -6
-20 -20 -20 -20 -20 -20 -20 -20 -20 -20 -20 -20 -20 -20 -20 -20 -20 -20 -20 -20 -20 -20 -20 -3 -3 -2 7 10 30 18 24 6 13 -16 -20 -20 -20 -20 -20 -20 8 19 1
-20 -20 -20 -20 -20 -20 -20 -20 -20 -20 -20 -20 -20 -20 -20 -20 -20 -20 -20 -20 -20 -20 -20 -20 -20 13 -19 18 31 21 26 23 -17 -20 -20 -20 -20 -20 -20 7 12 16 12
-20 -20 -20 -20 -20 -20 -20 -20 -20 -20 -20 -20 -20 -20 -20 -20 -20 -20 -20 -20 -20 -20 -13 20 -13 7 12 -4 23 21 16 27 8 2 -20 -3 -20 -20 -20 0 11 1 16
-20 -20 -20 -20 -20 -20 -17 -20 -20 -20 -20 -20 -20 -20 -20 -20 -20 -20 -20 -20 -20 -20 -19 9 13 -2 -2 13 20 32 14 28 23 9 -16 9 -20 -20 -20 -20 -20 9 7
-20 -20 -20 -20 -20 17 16 -20 -20 -20 -20 -20 -20 -20 -20 -20 -20 -20 -20 -20 -20 -20 -20 -10 5 -10 6 23 35 26 28 29 14 5 19 2 -20 -20 -20 -20 0 -5 -20
-20 -20 -20 -20 -20 -20 -20 -20 -20 -20 -20 5 -16 -20 -20 -20 -20 -20 -20 -17 -2 5 -20 -13 -18 -6 33 27 35 17 20 25 18 -8 7 -20 -20 -20 -20 -20 -15 -20 -2
-20 -20 -20 -20 -20 -18 -17 -20 -20 -20 -20 -13 13 2 -7 14 11 5 -7 -18 2 5 -8 -19 8 20 21 31 20 25 19 24 25 -4 1 -20 -20 -20 -20 -20 -19 -20 -20
-20 -20 -20 -20 -20 -17 -3 -20 -20 -20 -20 -11 9 10 14 -5 -6 11 0 -6 -6 -15 -10 4 10 3 30 27 25 15 22 21 8 -11 3 -20 -20 -20 -20 -20 -20 -20 -20
-20 -16 -20 -20 -13 -19 -20 -20 -20 -20 -20 -20 -20 -17 14 14 13 10 15 15 8 16 -20 3 19 19 24 27 30 24 14 -4 29 7 9 -20 -20 -20 -20 -20 -20 -20 -20
-8 -19 -20 -20 -20 -20 -20 -20 -20 -20 -20 -20 5 15 9 11 13 30 7 13 15 -14 12 -20 -20 17 19 28 25 23 21 1 16 -20 -20 -20 -18 -20 -20 -20 -20 -20 -20
-20 -20 -20 -20 -20 -20 -20 -20 -20 -20 -20 -20 -6 -17 -15 -5 -9 16 9 11 -10 -15 11 -9 3 5 -9 6 14 24 11 -19 -20 -14 -2 -20 -20 -20 -20 -20 -20 -20 -20

GFSSE_prec_radar_102.txt.gz
Reflectivity
-20 -20 -20 -20 -20 -20 -20 -20 -20 -20 -20 -20 -20 -20 -20 -20 -20 -20 -20 -20 -20 -20 -20 -20 -20 -20 -20 -20 -20 -20 -20 -20 19 -20 -20 6 -0 5 0 -20 -20 -20 -14
-20 -20 -20 -20 -20 -20 -20 -20 -20 -20 -20 -20 -20 -20 -20 -20 -20 -20 -20 -20 -20 -20 -20 -20 -20 -20 -20 -20 -20 -20 -20 -20 -20 -20 -20 5 8 8 2 -6 2 3 -13
-20 -20 -20 -20 -20 -20 -20 -20 -20 -20 -20 -20 -20 -20 -20 -20 -20 -20 -20 -20 -20 -20 -20 -1 -20 -20 -20 -20 -20 -20 -20 -20 -20 -20 -10 -20 -19 9 4 -20 18 -3 -20
-20 -20 -20 -20 -20 -20 -20 -20 -20 -20 -20 -20 -20 -20 -20 -20 -20 -20 -20 -20 -20 -20 -20 -20 -20 -20 -20 -20 -20 -20 -20 -20 -20 -20 -20 -20 -12 6 2 -18 -17 -1 -4
-20 -20 -20 -20 -20 -20 -20 -20 -20 -20 -20 -20 -20 -20 -20 -20 -20 -20 -20 -20 -20 -20 -20 -20 -20 -20 -20 -20 -20 -20 -20 -20 -20 -20 -20 -20 -4 -13 -5 0 27 -8 5
-20 -20 -20 -20 -20 -20 -20 -20 -20 -20 -20 -20 -20 -20 -20 -20 -20 -20 -20 -20 -20 -20 1 2 -20 -20 -20 -20 -20 -20 -20 -20 -20 -20 -20 -20 -20 1 3 -17 -20 -0 10
-20 -20 -20 -20 -20 -20 -20 -20 -20 -20 -20 -20 -20 -20 -20 -20 -20 -20 -20 -20 -20 -20 1 -20 -20 -20 -20 -20 -20 -20 -20 -20 -20 -20 -20 -20 -20 -2 6 -14 -20 -6 9
-20 -20 -20 -20 -20 -20 -20 -20 -20 -20 -20 -20 -20 -20 -20 -20 -20 -20 -20 -20 -20 -20 -20 -20 -20 -20 -20 -4 -20 -20 -20 -20 -20 -20 -20 -20 8 6 10 -6 -20 -20 -20
-20 -20 -20 -20 -20 -20 -20 -20 -20 -20 -20 -20 -20 -20 -20 -20 -20 -20 -20 -20 -20 -20 -20 -20 -20 -11 -20 12 -20 -20 -20 -20 -20 -20 -20 -20 16 25 14 -2 -20 -20 -20
-20 -20 -20 -20 -20 -20 -20 -20 -20 -20 -20 -20 -20 -20 -20 -20 -20 -20 -20 -20 -9 -20 -20 12 -13 -20 -20 5 -20 -20 -20 -20 -20 -20 -20 -11 -20 -5 16 -6 -20 -20 -20
-20 -20 -5 -11 -20 -20 -20 -20 -20 -20 -20 -20 -20 -19 -6 -20 -20 -20 -20 -20 -6 -20 4 -20 -20 -20 -20 -20 -19 -7 18 -2 17 -20 -20 -20 29 19 3 -20 -20 -18 -13
-20 -20 -20 -20 -20 -20 -20 -20 -20 -20 -20 -20 -20 -20 -20 -20 -20 -20 -20 -20 -20 -20 -20 -20 -20 -20 -20 -20 12 34 12 29 28 22 -20 -16 -20 -4 -0 -19 -19 -4 15
-20 -20 -13 -20 -20 -20 -20 -20 -20 -20 -20 -20 -20 -20 -20 -20 -20 -20 -20 -20 -20 -20 -20 -20 -20 -20 -7 -13 -16 -18 22 33 25 -20 -12 -11 20 -12 10 -20 -20 -17 10
-20 -20 -6 -3 -20 -20 -20 -20 -20 -20 -20 -20 -20 -20 -20 -20 -20 -20 -20 -20 -20 -20 -20 9 26 17 -20 -20 -10 -15 -9 34 29 -16 -20 -20 23 -20 -11 -14 -20 -20 10
-20 -20 -18 -13 -20 -20 -20 -20 -20 -20 -13 -20 -20 -20 -20 -20 -20 -20 -20 -20 -20 -20 -20 -20 -20 -20 -20 -17 -10 -16 -17 24 25 27 -7 -20 -20 -20 -20 17 -20 -20 11
-20 -20 -20 -20 -20 -20 -20 -20 -20 -20 -20 -20 -20 -20 -20 -20 -20 -20 -20 -20 -20 -20 -20 -20 -20 -20 -20 -20 -19 -19 8 17 25 25 -20 -20 -20 -20 -20 -15 -18 16 11
-20 -20 -12 -20 -20 -20 -20 -20 -20 -20 -20 -20 -20 -20 -20 -20 -20 -20 -20 -20 -20 -20 -20 -20 -20 -20 -20 -17 -17 19 26 12 24 21 2 -20 -20 -20 -20 -20 7 11 16
-20 -20 -20 -20 -20 -20 -20 -20 -20 -20 -20 -20 -20 -20 -20 -20 -20 -20 -20 -20 -20 -20 -20 -20 -20 -20 -20 -20 -1 24 22 23 22 19 15 -7 -20 -20 -20 -20 8 13 13
-20 -17 -20 -20 -20 -20 -20 -20 -20 -16 -18 -20 -20 -20 -20 -20 -20 -20 -20 -20 -20 -20 -20 -1 5 2 -8 -15 -17 19 8 12 12 27 24 4 -20 2 -20 -20 10 -5 12
-20 -20 -1 -20 -20 -20 -20 -20 -18 -6 -12 -19 -20 -20 -20 -20 -20 -20 -20 -20 -20 -20 -20 5 7 -5 6 -1 22 9 11 19 25 25 18 12 16 7 -17 -20 -13 -9 4
-20 -20 -1 -20 -20 -20 -20 -20 -18 -20 -6 -13 -19 -20 -20 -20 -20 -20 -20 -20 -20 -5 -20 -14 8 8 -2 21 2 34 27 35 19 26 24 -17 -20 12 -20 -20 -20 -10 -20
-20 -20 -20 -20 -20 -20 -10 -18 -19 -20 -13 15 -19 -20 -0 -3 1 -1 2 -20 -3 -1 15 7 9 13 -4 -3 20 34 38 28 25 33 26 -17 -20 -20 -20 -20 -20 -20 -20
-20 -20 -20 -20 -20 -20 -15 -10 -11 -20 7 -2 -19 -20 -12 15 14 10 -3 14 16 4 7 12 8 15 -12 -6 18 23 35 24 15 30 4 -20 -20 -20 -20 -20 -20 -20 -20
-20 -20 -20 -20 -20 -20 -9 -20 -20 -20 -20 -20 -6 -20 -15 -6 3 18 11 28 -8 -8 -6 1 7 12 -14 10 14 25 33 14 14 9 12 26 -2 -20 -20 -20 -20 -20 -20
-20 -20 -20 -20 -20 -20 -20 -20 -20 -20 -20 -20 -20 -20 -20 3 3 7 -15 11 6 -12 7 8 -19 5 2 19 -4 16 5 14 19 -2 24 23 -5 -20 -6 -20 -20 -20 -20
-20 -20 -20 -7 -20 -19 -8 -18 1 -15 -20 -20 -20 -20 -20 5 5 14 12 23 8 17 10 3 11 -16 -17 14 -8 14 5 14 5 14 11 25 8 10 -15 -20 -20 -20 -20

GFSSE_prec_radar_105.txt.gz
Reflectivity
-20 -20 -20 -19 -20 -20 -20 -20 -20 -20 -20 -20 -20 -20 -20 -20 -20 -20 -20 -20 -20 -20 -20 -20 -20 -20 -20 -20 -20 -20 -20 -20 -20 -20 -20 -10 2 2 -3 -20 -20 -20 -20
-20 -20 -20 -16 -20 -20 -20 -20 -20 -20 -20 -20 -20 -20 -20 -20 -20 -20 -20 -20 -20 -20 -20 -20 -20 -20 -18 -20 -20 -20 -20 -20 -20 -20 -20 4 -12 -7 -14 -20 -20 -20 -20
-20 -20 -20 -20 -20 -20 -20 -20 -20 -20 -20 -20 -20 -20 -20 -20 -20 -20 -20 -20 -20 -20 -20 -20 -20 -20 -20 -20 -20 -20 -20 -20 -20 -16 4 -20 -19 11 -4 -20 -20 -20 -20
-20 -20 -20 -20 -20 -20 -20 -20 -20 -20 -20 -20 -20 -20 -20 -20 -20 -20 -20 -20 -20 -20 -20 -20 -20 -20 -20 -20 -20 -20 -20 -20 -20 -20 -20 -10 -9 12 -12 -20 -20 -13 -20
-20 -20 -20 -20 -20 -20 -20 -20 -20 -20 -20 -20 -20 -20 -20 -20 -20 -20 -20 -20 -20 -20 -20 -15 -20 -20 -20 -20 -20 -20 -20 -20 -20 -20 -20 -9 3 7 4 0 -20 1 -4
-20 -20 -20 -20 -20 -20 -20 -20 -20 -20 -20 -20 -20 -20 -20 -20 -20 -20 -20 -20 -9 3 -6 -8 -7 -20 -20 -20 -20 -20 -20 -20 -20 -20 -20 4 -17 1 0 -16 26 10 12
-20 -20 -20 -20 -20 -20 -20 -20 -20 -20 -20 -20 -20 -20 -20 -20 -20 -20 -19 -20 -20 -4 -20 -20 -20 -20 -20 -20 -20 -20 -20 -20 -20 -20 -14 -20 -20 3 6 -20 -19 9 4
-20 -20 -20 -20 -20 -20 -20 -20 -20 -20 -20 -20 -20 -20 -20 -20 -20 -20 -20 -20 -20 -20 -20 -20 -20 -20 -20 -20 -20 -17 -20 -20 -20 -16 -7 -20 -20 8 8 -19 -13 4 -5
-20 -20 -20 -20 -20 -20 -20 -20 -20 -20 -20 -20 -20 -20 -20 -20 -20 -20 -20 -20 -20 -20 -17 -20 -20 -20 -20 -20 -20 -6 -20 -20 -20 -20 -14 -20 4 -8 5 1 -20 -20 -20
-20 -20 -20 -20 -20 -20 -20 -20 -20 -20 -20 -20 -20 -20 -20 -20 -20 -20 -20 -20 -20 -20 -20 -20 -20 -20 -20 -20 -20 -20 -20 -20 -20 -20 8 -20 -20 -3 10 9 -20 9 -14
-20 -20 -20 -20 -20 -20 -20 -20 -20 -20 -20 -20 -20 -20 -20 -20 -20 -20 -20 -20 -20 -20 -20 -20 -20 -20 -20 -20 -20 -20 -20 -20 -20 -20 -1 -16 -20 4 11 13 1 -20 -20
-20 -20 -20 -20 -20 -20 -20 -20 -20 -20 -20 -20 -20 -20 -20 -20 -20 -20 -20 -20 -20 -20 -20 -20 -20 -20 -20 -20 -20 -20 -19 -15 -1 -6 -20 -20 31 -6 -1 -20 12 -20 -15
-20 -20 -20 -20 -20 -20 -20 -20 -20 -20 -20 -20 -20 -20 -7 -20 -20 -20 -20 -20 -20 -20 -20 -20 -20 -20 -20 -20 -20 -13 -20 -18 13 25 25 -10 31 5 9 -11 -20 -20 -9
-20 -20 -20 -20 -20 -20 -20 -20 -20 -20 -20 -20 -20 -20 -20 -20 -20 -20 -20 -20 -20 -20 -20 -20 -14 -20 -20 -20 -20 -20 6 -16 -19 4 31 30 32 -10 10 1 -20 -20 -20
-20 -20 -20 -20 -20 -11 -19 -20 -20 -20 -20 -20 -20 -19 -20 -9 -20 -20 -20 -20 -20 -20 -20 -20 -20 -20 -20 -9 -20 -20 26 0 -20 19 27 28 10 -3 -15 -20 16 -20 -20
-20 -20 -20 -20 -20 -20 -20 -20 -20 -20 -20 -20 -20 -16 -16 -9 -20 -20 -20 -20 -20 -20 -20 -20 -20 -20 -20 -20 -20 -20 -20 -20 -20 37 22 28 -20 28 -20 -20 1 19 2
-20 -20 -20 -20 -20 -15 -20 -20 -20 -20 -20 -20 -20 -20 -20 -10 -20 -20 -20 -20 -20 -20 -20 -20 -20 -20 -20 -19 -20 -20 -19 -8 25 20 23 27 23 -20 -20 -20 7 14 17
-20 -20 -20 -20 -20 -4 -19 -20 -20 -20 -18 -20 -20 -20 -20 -20 -20 -20 -20 -20 -20 -20 -20 -20 -20 -20 -20 -20 -20 -20 -14 4 18 16 26 26 22 -20 -19 -20 -20 1 9
-20 -20 -20 -20 -20 -7 -4 -20 -20 -20 -20 -11 -20 -20 -20 -20 -20 -20 -20 -20 1 -0 -20 -20 -20 8 -20 -9 6 17 -8 3 10 18 32 27 23 0 -17 -14 -20 5 11
-20 -20 -20 -20 -20 -20 -0 -10 -20 -20 -20 -20 -20 -20 -20 -20 -20 -20 -20 -20 -20 13 -19 -20 18 -20 -2 10 15 4 12 3 -20 3 18 32 17 14 7 9 -15 5 13
-20 -20 -20 -20 -20 -20 -10 13 -20 -20 -20 -20 -20 -16 -20 -20 -20 -20 -20 -20 -20 13 -13 -18 -20 -18 7 15 16 -3 17 17 -20 -13 12 23 29 22 11 12 6 -20 3
-20 -20 -20 -20 -20 -20 -20 4 -10 -20 -20 -20 -20 -20 -20 -3 -16 -20 -20 -20 -20 -7 -18 -9 -10 -20 10 11 18 21 24 38 37 13 21 24 28 19 -2 3 14 -20 -20
-20 -20 -20 -20 -20 -20 -20 -9 6 -16 1 -19 -20 -20 -20 -15 -15 -8 -5 8 -10 0 -12 -15 -16 -20 -12 7 12 10 12 18 11 28 26 28 30 3 -20 -20 -16 -20 -20
-20 -20 -20 -20 -20 -20 -20 -16 -17 -17 -20 -20 -20 -20 -20 -12 -10 5 11 -5 -3 18 12 -18 -20 -2 -9 12 16 11 -5 -7 30 29 22 24 33 2 -13 -5 -20 -20 -20
-20 -20 -20 -20 -20 -20 -20 -20 -9 -20 -20 -20 -20 -20 -20 -20 -13 2 9 16 14 -6 13 26 22 10 -20 9 1 5 14 21 33 30 28 25 30 17 14 -15 -20 -15 -20
-20 -20 -20 -20 -20 -20 -10 -1 3 -15 -20 -20 -20 -20 -20 -5 -20 6 7 5 10 13 17 9 7 14 1 8 13 -16 12 10 7 24 21 25 29 27 25 -10 -20 -8 -20

GFSSE_prec_radar_108.txt.gz
Reflectivity
-20 -20 -20 -20 -20 -20 -20 -20 -20 -20 -20 -20 -20 -20 -20 -20 -20 -20 -20 -20 -20 -20 -20 -20 -20 -20 -20 -20 -20 -20 -20 -20 -20 -20 -20 1 -2 -9 -20 14 0 -20 -20
-20 -20 -20 -20 -20 -20 -20 -20 -20 -20 -20 -20 -20 -20 -20 -20 -20 -20 -20 -20 -20 -20 -20 -20 -20 -20 -20 -20 -20 -20 -20 -20 -20 -15 5 4 11 9 -11 -18 -20 -20 -20
-20 -20 -20 -20 -20 -20 -20 -20 -20 -20 -20 -20 -20 -20 -20 -20 -20 -20 -20 -20 -20 -20 -20 -20 -20 -20 -20 -20 -20 -20 -20 -20 -20 -20 2 -14 -2 17 -12 -20 -20 -20 -20
-20 -20 -20 -20 -20 -20 -20 -20 -20 -20 -20 -20 -20 -20 -20 -20 -20 -20 -20 -20 -20 -20 -20 -20 -20 -20 -20 -20 -20 -20 -20 -20 -20 -20 -19 2 -2 19 -7 -20 -20 -15 -20
-20 -20 -20 -20 -20 -20 -20 -20 -20 -20 -20 -20 -20 -20 -20 -20 -20 -20 -20 -20 -20 -20 -20 -20 -20 -20 -20 -20 -20 -20 -20 -20 -20 -20 -20 8 14 18 4 -0 -20 -20 -20
-20 -20 -20 -20 -20 -20 -20 -20 -20 -20 -20 -20 -20 -20 -20 -20 -20 -20 -20 -20 -20 -20 -20 3 -20 -20 -20 -20 -20 -20 -20 -20 -20 -20 -20 4 14 6 13 -20 -20 -20 10
-20 -20 -20 -20 -20 -20 -20 -20 -20 -20 -20 -20 -20 -20 -20 -20 -20 -20 -20 -20 -8 -20 -20 -16 -20 -20 -20 -20 -20 -20 -20 -20 -20 -20 -20 -20 -9 6 5 -20 -20 2 13
-20 -20 -20 -20 -20 -20 -20 -20 -20 -20 -20 -20 -20 -20 -20 -20 -20 -20 -20 -20 -13 3 -20 -20 -20 -20 -20 -20 -20 -20 -20 -20 -20 -20 -20 -20 11 8 6 -20 8 9 3
-20 -20 -20 -20 -20 -20 -20 -20 -20 -20 -20 -20 -20 -20 -20 -20 -20 -20 -20 -20 -20 -20 -20 -20 -20 -20 -20 -20 -20 -20 -20 -20 -20 -20 -20 -20 -18 0 2 -20 2 -1 -20
-20 -20 -20 -20 -20 -20 -20 -20 -20 -20 -20 -20 -20 -20 -20 -20 -20 -20 -20 -20 -20 -20 -20 -20 -20 -20 -20 -20 -20 -20 -20 -20 -20 -20 -20 -20 -20 25 5 3 -1 -20 -20
-20 -20 -20 -20 -20 -20 -20 -20 -20 -20 -20 -20 -20 -20 -20 -20 -20 -20 -20 -20 -20 -20 -20 -20 -20 -20 -20 -20 -20 -20 -20 -20 -20 -20 -20 -20 -13 -8 -8 15 -4 -20 -20
-20 -20 -20 -20 -20 -20 -20 -20 -20 -20 -20 -20 -20 -20 -20 -20 -20 -20 -20 -20 -20 -20 -20 -20 -20 -20 -20 -20 -20 -20 -20 -20 -20 -20 -20 -20 11 -3 -12 15 -20 19 -7
-20 -20 -20 -20 -20 -20 -20 -20 -20 -20 -20 -20 -20 -20 -20 -20 -20 -20 -20 -20 -20 -20 -20 -20 -20 -20 -20 -20 -20 -20 -20 -20 -20 -6 -4 -20 -12 -7 4 14 -20 -5 8
-20 -20 -20 -20 -20 -20 -20 -20 -7 7 -15 -20 -20 -20 -20 -20 -20 -20 -20 -20 -20 -20 -20 -20 -20 -20 -20 -20 -20 -20 -20 -20 -20 14 -18 -9 -20 31 -7 11 -2 -20 -20
-20 -20 -20 -20 -20 -20 -20 -20 -20 -7 -13 -20 -20 -20 -20 -20 -20 -20 -20 -20 -20 -20 -20 -20 -20 -20 -20 -20 -20 -20 -20 -20 -20 -20 -20 33 5 26 -0 2 7 3 -20
-20 -20 -20 -20 -20 -20 -20 -20 -20 -20 -20 -20 -20 -20 -20 -15 -20 -20 -20 -20 -20 -20 -20 -20 -20 -20 -20 -20 -20 -20 -20 -20 -20 -20 -20 -17 32 29 31 22 -1 10 8
-20 -20 -20 -20 -20 -14 23 -6 -8 -20 -20 -20 -20 -20 -20 -16 -18 -20 -20 -20 -20 -20 -20 -20 -20 -20 -20 -20 -20 -20 -20 -20 -20 -20 -8 33 32 28 29 21 8 11 -11
-20 -20 -20 -20 -20 -20 -20 -8 -7 25 -20 -2 -7 -20 -20 -20 -11 7 8 -20 -20 -20 -20 -20 -20 -20 -20 -20 -20 -20 -20 -20 -20 10 8 31 28 27 26 26 -18 7 14
-20 -20 -20 -20 -20 -20 -20 -20 -4 -17 -20 -20 -20 -20 -20 -2 -8 -20 1 -12 -20 -8 -20 -20 -20 -20 -20 -20 1 11 -14 -20 11 20 17 25 29 36 23 19 -20 -20 -12
-20 -20 -20 -20 -20 -20 -20 -20 -16 -8 -5 -20 -20 -20 -20 -11 12 7 -20 -14 -0 11 -12 -20 -20 -20 -20 -13 -6 7 9 11 17 -0 22 22 15 37 34 -19 -18 1 -20
-20 -20 -20 -20 -20 -20 -20 -20 -20 -20 -20 -20 -11 -20 -20 -20 -20 -2 9 -20 5 2 15 -5 -20 4 14 6 13 -17 16 8 -15 22 4 20 -17 32 39 27 -19 3 -6
-20 -20 -20 -20 -20 -20 -20 -20 -20 -20 -20 -17 -19 -8 -18 -18 -20 -1 6 -20 -20 -19 -10 6 -20 -13 17 15 2 -20 -1 -13 18 6 21 -2 -11 19 24 15 -18 5 6
-20 -20 -20 -20 -20 -20 -20 -20 -5 -13 -20 -3 -6 -17 -14 -9 -19 -20 -20 -20 -20 -7 -16 1 -3 1 6 -16 -10 -20 3 -10 -20 -18 11 10 11 12 24 23 4 -0 -16
-20 -20 -20 -20 -20 -20 -20 -19 -6 -20 -20 -20 -8 -20 -20 -1 -20 -20 -20 -20 -20 4 5 13 10 13 -15 -18 -20 -1 -20 -20 -9 -16 -10 8 34 25 29 22 -13 6 -17
-20 -20 -20 -20 -20 -20 -20 -20 -20 -20 -20 -20 -20 -20 -19 2 -4 -20 -20 -20 -19 6 22 10 17 14 -2 -14 -18 -2 3 -20 13 17 20 23 30 29 26 19 -16 -14 2
9 -20 -20 -20 -20 -20 -20 -20 -20 -20 -20 -20 -20 -20 10 -10 -15 -9 -19 -20 -20 -5 -1 15 6 14 8 4 1 8 0 -8 2 -7 -9 30 27 27 24 35 8 -10 6

GFSSE_prec_radar_111.txt.gz
Reflectivity
-20 -20 -20 -20 -20 -20 -20 -20 -20 -20 -20 -20 -20 -20 -20 -20 -20 -20 -20 -20 -20 -20 -20 -20 -20 -20 -20 -20 -20 -20 -20 -20 -20 -14 -15 19 2 -14 -20 -20 31 10 -7
-20 -20 -20 -20 -20 -20 -20 -20 -20 -20 -20 -20 -20 -20 -20 -20 -20 -20 -20 -20 -20 -20 -20 -20 -20 -20 -20 -20 -20 -20 -20 -20 -20 4 7 9 5 3 -20 -20 -2 -5 -20
-20 -20 -20 -20 -20 -20 -20 -20 -20 -20 -20 -20 -20 -20 -20 -20 -20 -20 -20 -20 -20 -20 -20 -20 -20 -20 -20 -20 -20 -20 -20 -20 -20 -20 -20 6 -18 6 -14 -20 -20 -20 -20
-20 -20 -20 -20 -20 -20 -20 -20 -20 -20 -20 -20 -20 -20 -20 -20 -20 -20 -20 -20 -20 -20 -20 -20 -20 -20 -20 -20 -20 -20 -20 -20 -20 -20 7 1 -10 8 -14 -20 -20 -20 -20
-20 -20 -20 -20 -20 -20 -20 -20 -20 -20 -20 -20 -20 -20 -20 -20 -20 -20 -20 -20 -20 -20 -20 -20 -20 -20 -20 -20 -20 -20 -20 -20 -20 -20 -7 -9 6 6 -9 -20 -5 -20 -13
-20 -20 -20 -20 -20 -20 -20 -20 -20 -20 -20 -20 -20 -20 -20 -20 -20 -20 -20 -20 -20 -20 -20 -20 -20 -20 -20 -20 -20 -20 -20 -20 -20 -20 -20 -5 -4 1 -19 -20 -20 -20 -20
-20 -20 -20 -3 -20 -20 -20 -20 -20 -20 -20 -20 -20 -20 -20 -20 -20 -20 -20 -20 -20 -20 -20 -13 -20 -20 -20 -20 -20 -20 -20 -20 -20 -20 -7 -14 13 -11 -15 -20 -18 -20 -20
-20 -20 -20 11 -10 -20 -20 -20 -20 -20 -20 -20 -20 -20 -20 -20 -20 -20 -20 -20 -20 -20 -20 -6 -20 -20 -20 -20 -20 -20 -20 -20 -20 -20 -20 -13 0 6 -12 -20 -20 -4 -16
-20 -20 -20 -20 -4 -20 -20 -20 -20 -20 -20 -20 -20 -20 -20 -20 -20 -20 -20 -20 -20 -20 -20 -20 -20 -20 -20 -20 -20 -20 -20 -20 -20 -20 -20 -20 5 6 -5 -20 7 -1 -15
-20 -3 -20 -20 -20 -7 -4 -20 -20 -20 -20 -20 -20 -20 -20 -20 -20 -20 -20 -20 -20 -20 -20 -20 -20 -20 -20 -20 -20 -20 -20 -20 -20 -20 -6 2 -20 17 -0 26 3 -3 -20
-20 -20 -20 -20 -20 -2 -20 -20 -20 -20 -20 -20 -20 -20 -4 -20 -20 -20 -20 -20 -20 -20 -20 -20 -20 -20 -20 -20 -20 -20 -20 -20 -20 4 -10 -20 -17 -2 13 -5 -6 -13 -20
-20 -20 -18 -20 -20 -7 -20 -20 -2 -16 -20 -20 -20 -20 -9 -20 -20 -20 -20 -20 -20 -20 -20 -20 -20 -20 -20 -20 -20 -20 -20 -20 -20 -20 -20 -20 -20 28 19 -3 -3 -20 -20
-20 -20 -20 -20 -20 -20 -20 -20 -20 -10 -20 -19 -18 -17 3 4 -2 -20 1 -20 -20 -20 -20 -20 -20 -20 -20 -20 -20 -0 -20 -20 -20 -20 -20 -20 -20 -20 17 6 7 -20 -20
-20 -20 -20 -20 -20 -20 -20 -20 -20 -20 -20 -20 7 -20 -20 -20 -6 -2 -2 6 9 -20 13 -19 -20 -20 -20 -20 -20 -20 -20 -20 -20 -20 -20 -17 -19 -0 4 5 10 4 -20
-20 -20 -20 -20 -20 -20 -20 -20 -20 -20 -20 -9 -6 -19 -20 -20 -20 -20 -8 -14 4 6 -20 -8 -20 -10 -20 -20 -20 -20 -20 -20 -20 -20 -20 13 -10 31 24 15 9 9 -17
-20 -17 -20 -20 -20 -20 -20 -20 -20 -20 -20 -20 -11 -13 -13 -20 -20 -20 -20 -20 -20 -20 -20 -20 -20 -20 -20 -20 -20 -20 -20 -20 -20 -20 -20 -20 -16 32 31 30 11 9 -14
-20 -20 -20 -20 -20 -20 -20 -20 -20 -20 -20 -20 -15 -5 -2 -2 0 -20 -20 -20 -20 -20 -20 -20 -20 -20 -20 -20 -19 -20 -20 -20 -20 -20 -20 -20 2 -5 34 32 28 10 4
-20 -20 -20 -20 -20 -20 -20 -20 -20 -20 -20 -7 -20 -20 -20 -20 -20 -17 -20 -6 -20 -20 -20 -20 -20 -20 -20 -20 -2 5 1 -20 -20 -20 -20 -20 -20 12 23 33 41 21 -1
-20 -20 -20 -20 -20 -20 -20 -20 -20 -20 -20 -20 -20 -20 -20 -20 -20 -7 -20 1 -15 -20 -20 -20 -20 -20 -16 1 1 -20 -20 -20 -20 -20 -20 -14 4 16 32 24 33 24 -20
-20 -20 -20 -20 -20 -20 -20 -20 -2 2 -20 -20 -20 -20 -20 -20 -20 8 -15 -18 8 -14 -20 -20 -20 -20 -20 -12 -8 -17 -3 -20 -12 -20 -20 -10 11 30 38 35 26 21 -20
-20 -20 -20 -20 -20 -20 -20 -7 -0 -20 -20 -12 -20 -14 -18 -13 -20 11 6 -20 7 -13 -20 -20 -20 -2 -12 -20 -18 3 4 5 1 1 -0 -1 11 24 33 28 31 24 -20
-4 -17 -20 -20 -20 -20 -20 -20 -20 -20 -20 -16 -20 -14 -20 -20 -20 -20 -7 -20 10 -5 -20 -20 -20 -20 -14 6 -5 -9 3 -2 10 8 8 10 5 16 28 22 35 31 -8
-20 -16 -20 -20 -20 -20 -20 -20 -17 -0 6 6 -14 -20 -20 -20 -20 -20 -16 -8 -2 5 -20 -20 -20 -20 -20 -17 11 -10 -4 2 -10 4 -0 2 10 23 -8 7 32 31 29
-20 -20 -20 -20 -20 -20 -20 -20 -20 -20 -5 -18 -20 -20 -18 -20 -20 -20 -20 -2 29 11 -20 -20 -20 -20 -20 -20 -16 18 -3 -15 -14 -4 4 8 11 -6 10 18 17 29 22
-20 -20 -20 -20 -20 -20 -20 -20 -20 -20 -20 -20 -1 3 -20 -20 -2 -20 -20 -19 11 13 -20 -20 -12 -20 -20 -20 -20 1 -5 -13 -18 -20 -5 -3 -2 7 12 24 3 28 17
-12 -20 -20 -19 -20 -20 -20 -20 -20 -20 -20 -7 2 3 -12 -20 -7 -1 -17 -19 -17 -13 -19 -18 -15 -20 -20 -20 -2 -15 -20 -7 -20 -8 -6 -19 -19 -20 9 5 27 33 25

GFSSE_prec_radar_114.txt.gz
Reflectivity
-20 -20 -20 -20 -20 -20 -20 -20 -20 -20 -20 -20 -20 -20 -20 -20 -20 -20 -20 -20 -20 -20 -8 -20 -20 -20 -20 -20 -20 -20 -20 -20 -20 -20 -20 11 6 -1 -20 -20 -20 -9 -7
-20 -20 -20 -20 -20 -20 -20 -20 -20 -20 -20 -20 -20 -20 -20 -20 -20 -20 -20 -20 -20 -20 -20 -20 -20 -20 -20 -20 -20 -20 -20 -20 -20 -20 -20 1 10 3 -20 -20 5 -4 -20
-20 -20 -20 -20 -20 -20 -20 -20 -20 -20 -20 -20 -20 -20 -20 -20 -20 -20 -20 -20 -20 -20 -20 -20 -20 -20 -20 -20 -20 -20 -20 -20 -20 -20 -20 4 8 5 -20 -17 -20 -14 -20
-20 -20 -20 -20 -20 -20 -20 -20 -20 -20 -20 -20 -20 -20 -20 -20 -20 -20 -20 -20 -20 -20 -20 -20 -20 -20 -20 -20 -20 -20 -20 -20 -20 -20 5 14 5 8 -20 -20 -20 -20 -20
-20 -20 -20 -20 -20 -20 -20 -20 -20 -20 -20 -20 -20 -20 -20 -20 -20 -20 -20 -20 -20 -20 -20 -20 -20 -20 -20 -20 -20 -20 -20 -20 -20 -20 -20 -20 -10 -3 -20 -15 -20 -20 -14
-20 -20 -20 -20 -20 -20 -20 -20 -20 -20 -20 -20 -20 -20 -20 -20 -20 -20 -20 -20 -20 -20 -20 -20 -20 -20 -20 -20 -20 -20 -20 -20 -20 -20 -20 -20 -18 -2 -14 -20 -13 -20 -20
-20 -20 -20 -20 -20 -20 -20 -20 -20 -20 -20 -20 -20 -20 -20 -20 -20 -20 -20 -20 -20 -20 -20 -20 -20 -20 -20 -20 -20 -20 -20 -20 -20 -20 -12 2 10 -11 -20 -18 18 -20 -20
-20 -20 -20 -18 -20 -20 -20 -20 -20 -20 -20 -20 -20 -20 -20 -20 -20 -20 -20 -20 -20 -20 -20 -20 -20 -20 -20 -20 -20 -20 -20 -20 -20 -20 -13 3 -20 -20 -20 5 4 -8 -20
-20 -20 1 -9 -20 -20 -20 -20 -20 -20 -20 -20 -20 -20 -20 -20 -20 -20 -20 -20 -20 -20 -20 -20 -20 -20 -20 -20 -20 -20 -20 -20 -20 -20 -19 -5 -20 8 -20 -20 -12 -20 -20
-16 -4 2 -20 -13 -20 -20 -20 -20 -20 -20 -20 -20 -20 -20 -20 -20 -20 -20 -20 -20 -20 -20 -20 -20 -20 -20 -20 -20 -20 -20 -20 -20 -20 -20 -20 -7 -20 2 -19 -13 -13 0
-1 -6 -20 -20 -20 -10 -20 -18 -20 -20 -20 -20 -20 -20 -3 -20 -15 -15 -20 -20 -20 -20 -20 -20 -20 -20 -20 -16 -20 -20 -17 -20 -20 -20 -20 -20 12 -14 36 12 -4 -12 -20
-14 -14 -20 -11 -11 -20 -20 -9 -20 -20 -20 -20 -20 -20 -20 -8 4 9 -3 -20 -20 -18 5 -20 -20 -20 -20 -20 -20 -20 -20 -20 -20 -20 -20 -20 -20 -20 -7 19 -16 -20 -20
-20 -20 -20 -20 -20 -3 -20 -16 -17 -19 -20 -20 -20 -20 -20 -2 6 8 19 16 4 -20 -8 -20 -20 -20 -20 -20 -20 -17 -20 -20 -20 -20 -20 -10 -20 -20 26 33 -9 -20 -20
-20 -20 -20 -20 -20 -9 -8 -20 -20 -1 -18 -14 -18 -18 -17 5 1 2 6 8 7 5 11 -4 -5 -15 -6 -17 -20 -20 -20 -20 -20 -20 -17 -9 -20 -2 -15 -11 -19 -13 -20
-20 -20 -16 -20 -20 -20 -20 -20 -20 -20 -20 -4 -8 -20 -20 2 3 -13 -20 -20 -20 4 7 4 -5 -11 -20 1 -12 5 17 -20 -20 -20 5 -16 -20 -20 17 25 3 4 -9
-20 -20 -18 -15 -17 -20 -20 -20 -20 -20 -20 -16 -7 -2 -20 -20 -18 -20 -20 -20 -20 3 1 10 -3 1 2 -7 4 2 16 -20 -20 -20 -20 10 -20 -20 -12 6 26 24 8
-20 -20 -20 -15 -14 -17 -20 -20 -20 -20 -20 -20 -20 -1 5 -19 -4 -20 -20 -18 -20 6 0 1 -14 4 -4 -10 9 4 4 20 2 24 -20 -20 -4 -20 -20 -15 30 36 13
-20 -20 -20 -20 -20 -20 -20 -20 -20 -20 -20 -20 -20 -20 -0 -19 -19 5 -20 -20 -0 2 7 1 -3 11 7 4 1 -1 3 7 4 1 -20 -20 -20 -20 -8 17 26 47 31
-20 -20 -20 -20 -20 -20 -20 -20 -20 -20 -20 -20 -20 -20 -20 -8 4 2 4 -15 -9 -7 -15 5 -0 -3 13 7 6 -6 4 0 1 11 18 4 -20 -20 -20 8 5 44 41
-20 -20 -20 -20 -20 -20 -20 -20 -20 -20 -20 -20 -20 -20 -20 -20 -20 -9 -17 6 0 -20 -2 5 6 4 2 6 8 5 12 10 11 12 -8 -1 -17 -20 -20 24 10 25 37
-20 -20 -20 -20 -20 -20 -20 -20 -20 -20 -20 -20 -20 -20 -20 -20 -20 -20 -20 1 -0 -0 -16 -15 -6 8 13 15 15 14 16 -1 0 8 11 3 6 -20 -18 -17 11 34 36
-20 -20 -20 -20 -20 -20 -20 -20 -20 -20 -20 -20 -20 -20 -20 -20 -20 -20 -20 -9 5 -14 -20 -15 -20 -20 -4 4 -20 5 10 9 3 4 9 2 7 7 1 13 18 30 37
-20 -20 -20 -20 -20 -20 -20 -20 -20 -20 -20 -20 -20 2 -11 -20 -20 -20 -20 -2 -2 -1 -20 12 5 -20 -3 4 -19 -8 7 -18 -20 10 9 3 7 8 -11 12 14 32 29
-20 -20 -20 -20 -20 -20 -20 -20 -20 -20 -20 -20 -19 -15 -20 -20 -13 -12 -1 2 2 1 -5 -10 -1 1 -20 -20 -10 7 -20 -20 -8 6 -9 -4 7 11 -1 23 24 6 23
-20 -20 -20 -20 -20 -20 -20 -20 -20 -20 -20 -20 -20 -20 -20 -1 2 3 4 5 1 4 -19 -14 12 -5 -12 -10 -20 -18 4 1 -18 -19 10 12 -15 -11 5 2 -3 2 12
-20 -20 -20 -20 -20 -20 -20 -20 -15 -20 -20 -20 -20 -20 -20 5 5 -20 -10 -13 -1 4 1 -20 -13 -4 -14 4 -19 6 2 -3 -0 -4 11 -15 11 7 4 -4 -13 2 -4

GFSSE_prec_radar_117.txt.gz
Reflectivity
-20 -20 -20 -20 -20 -20 -20 -20 -20 -20 -20 -20 -20 -20 -20 -20 -20 -20 -20 -20 -20 -20 -20 -20 -20 -20 -20 -20 -20 -20 -20 -20 -20 -20 -20 -20 -20 -20 -20 -20 -19 -12 -20
-20 -20 -20 -20 -20 -20 -20 -20 -20 -20 -20 -20 -20 -20 -20 -20 -20 -20 -20 -20 -20 -20 -20 -20 -20 -20 -20 -20 -20 -20 -20 -20 -20 -20 -20 -20 -20 -20 -20 -20 2 -12 -20
-20 -20 -20 -20 -20 -20 -20 -20 -20 -20 -20 -20 -20 -20 -20 -20 -20 -20 -20 -20 -20 -9 -20 -20 -20 -20 -20 -20 -20 -20 -20 -20 -20 -20 -20 -16 0 -20 -20 -20 -20 -20 -20
-20 -20 -20 -20 -20 -20 -20 -20 -20 -20 -20 -20 -20 -20 -20 -20 -20 -20 -20 -20 -20 -20 -20 -20 -20 -20 -20 -20 -20 -20 -20 -20 -20 -20 -20 -20 1 -20 -20 -20 -17 -20 -20
-20 -20 -20 -20 -20 -20 -20 -20 -20 -20 -20 -20 -20 -20 -20 -20 -20 -20 -20 -20 -20 -20 -20 -20 -7 -20 -20 -20 -20 -20 -20 -20 -20 -20 -18 -13 12 -3 -20 -20 16 -8 -9
-20 -20 -20 -20 -20 -20 -20 -20 -20 -20 -20 -20 -20 -20 -20 -20 -20 -20 -20 -20 -20 -20 -20 -20 -20 -20 -20 -20 -20 -20 -20 -20 -20 -8 28 -4 3 -4 -20 -20 -20 -20 -20
-20 -20 -20 -20 -20 -20 -20 -20 -20 -20 -20 -20 -20 -20 -20 -20 -20 -20 -20 -20 -20 -20 -15 -20 -20 -20 -20 -20 -20 -20 -20 -20 -17 21 -20 -3 19 -20 -20 -20 -8 -20 -3
-20 -20 -20 -20 -20 -20 -20 -20 -20 -20 -20 -20 -20 -20 -20 -20 -20 -20 -20 -20 -20 -20 -20 -20 -20 -20 -20 -20 -20 -20 -20 -20 -20 -20 -20 20 -20 -1 -20 -20 4 -7 -20
-20 -20 -20 -20 -19 -20 -20 -20 -20 -20 -20 -20 -20 -20 -20 -20 -20 -20 -20 -20 -20 -20 -20 -20 -20 -20 -20 -20 -20 -20 -20 -20 -20 2 -20 16 -8 -20 -20 -20 -20 -20 -20
-20 -20 11 -20 -20 -20 -20 -20 -20 -20 -20 -20 -20 -20 -20 -20 -20 -20 -20 -20 -20 -20 -20 -20 -20 -20 -20 -20 -20 -20 -20 -20 -20 -7 -20 -20 -20 14 -14 -15 -20 -10 -20
-20 -20 12 -1 -20 -20 -20 -20 -20 -20 -20 -20 -20 -20 -8 -20 -20 -14 -20 -20 -20 -20 -20 -20 -20 -20 -20 -17 -20 -20 -20 -20 -20 5 -20 -16 -20 -20 -2 -18 -20 8 -16
-20 -20 -20 6 -18 1 -20 -20 -20 -20 -20 -20 -20 -20 -20 -20 -20 -20 -20 -20 -20 -20 -20 -17 -16 -20 -20 -20 -20 -7 -20 -20 -20 -1 -5 -16 -20 -20 -20 4 -20 -6 -20
-20 -20 6 2 -7 -20 -20 -19 -20 -20 -20 -20 -20 -20 -20 -20 -20 -20 -11 -13 -9 -20 -5 -20 -20 -20 -20 -20 -20 -20 -20 -20 -19 -17 2 -20 -20 -20 -20 -20 -20 -4 -20
-20 -20 -20 -13 -4 3 -20 -20 -20 -20 -20 -20 -20 -20 -20 -20 -20 -16 -20 4 3 5 6 -6 -5 -20 -20 -20 -20 -20 -20 -20 -17 -5 -3 -20 -20 -20 -19 26 -13 -8 -20
-20 -20 -20 -20 7 11 3 -20 -20 -20 -20 -20 -20 -20 -20 -20 -20 -20 -20 -20 -20 -19 -20 8 -18 -20 -20 -20 -20 -20 -20 -20 -20 -16 -1 -20 -20 -20 -20 -20 -16 9 -20
-20 -20 -20 -20 4 9 26 8 2 -20 -20 -20 -20 -20 -6 -20 -20 -20 -20 -20 -20 -20 -20 -3 8 -20 -15 -20 -7 -20 -20 -20 -20 -16 9 -17 -20 -20 -20 -5 -3 4 12
-20 -20 -20 -20 -20 -18 28 24 8 -17 -20 -20 -20 -20 -5 -20 -20 -20 -20 -20 -20 -20 -20 -10 11 -20 -3 10 8 6 -20 -20 -20 -17 5 -20 -20 -20 -20 -20 -14 32 26
-20 -20 -20 -20 -20 -20 -20 -20 -3 -20 -20 -20 -20 -20 -3 -16 -20 -20 -9 -20 -20 -20 -20 11 8 10 -1 13 7 10 2 0 -20 -20 -20 -20 -20 -15 -19 -20 -20 -20 -12
-20 -20 -20 -20 -20 -20 -20 -20 -20 -20 -20 -20 -20 -20 -20 -16 -9 -20 -12 -7 -20 -20 -20 8 10 -0 9 11 13 13 12 -16 7 -20 -20 -18 -19 4 7 -20 -20 -20 -2
-20 -20 -20 -20 -20 -20 -20 -20 -20 -20 -20 -20 -20 -20 -20 -20 -20 1 -20 3 -1 -20 -0 7 9 8 5 -8 -19 -3 6 4 -20 -20 -20 -20 -20 -20 -20 -20 -20 -20 9
-20 -20 -20 -20 -20 -20 -20 -20 -20 -20 -20 -20 -20 -20 -20 -20 -20 0 -20 -20 -20 0 -19 6 5 11 7 12 1 11 9 4 -16 7 -20 -20 -20 2 -9 -11 12 -20 -1
-20 -20 -20 -20 -20 -20 -20 -20 -20 -20 -20 -20 -20 -20 -20 -20 -20 -20 -20 -20 3 -1 -20 -2 7 10 12 10 10 12 -15 7 -15 1 -20 -20 -20 -20 8 13 12 3 1
-20 -20 -20 -20 -20 -20 -20 -20 -20 -20 -20 -20 -20 -20 -20 -20 -1 -20 -20 -20 -20 -1 0 -20 3 4 7 14 4 -12 -9 -20 -20 -20 -6 -2 6 -9 1 10 6 10 3
-20 -20 -20 -20 -20 -20 -20 -20 -20 -20 -20 -20 -14 -20 -20 -13 -16 -20 -5 -14 -13 -2 0 -12 5 -13 -16 -15 10 -20 -20 -20 -20 -6 -9 2 7 6 2 5 3 7 9
-20 -20 -20 -20 -20 -20 -20 -20 -20 -20 -20 -20 -20 -20 -20 -13 -7 -18 4 6 7 8 3 1 -4 -4 -19 -20 -20 4 5 -19 -19 -20 22 -13 -19 -20 -20 -5 -4 5 -0
-20 -20 -20 -20 -20 -20 -20 -20 -20 -20 -20 -20 -20 -20 -20 -16 3 5 8 7 5 9 10 6 7 7 -16 -17 11 1 -18 -5 -20 2 2 14 15 7 -20 -10 7 -6 5

GFSSE_prec_radar_120.txt.gz
Reflectivity
-20 -20 -20 -20 -20 -20 -20 -20 -20 -20 -20 -20 -20 -20 -20 -20 -20 -20 -20 -20 -20 -20 3 -20 -20 -20 -20 -20 -20 -20 -20 -20 -20 -20 -20 9 -20 -20 -20 -20 -20 -20 -20
-20 -20 -20 -20 -20 -20 -20 -20 -20 -20 -20 -20 -20 -20 -20 -20 -20 -20 -20 -20 -20 -20 -20 -20 -20 -20 -20 -20 -20 -20 -20 -20 -20 -20 -20 -20 -20 -20 -20 -20 -20 -20 -20
-20 -20 -20 -20 -20 -20 -20 -20 -20 -20 -20 -20 -20 -20 -20 -20 -20 -20 -20 -20 -20 -17 1 -6 -20 -20 -19 -20 -20 -20 -20 -20 -20 -20 -20 -20 -20 -20 -20 -20 -20 -20 -20
-20 -20 -20 -20 -20 -20 -20 -20 -20 -20 -20 -20 -20 -20 -20 -20 -20 -20 -20 -20 -20 -20 -20 -20 -20 -20 -20 -20 -20 -20 -20 -20 -20 -20 -14 -18 -20 -20 -20 -20 -17 -19 -20
-20 -20 -20 -20 -20 -20 -20 -20 -20 -20 -20 -20 -20 -20 -20 -20 -20 -20 -20 -20 -20 -20 -20 -20 -16 -20 -20 -20 -20 -20 -20 -20 -20 -20 -20 -20 -20 -20 -20 -20 -20 -10 -19
-20 -20 -20 -20 -20 -20 -20 -20 -20 -20 -20 -20 -20 -20 -20 -20 -20 -20 -20 -20 -20 -20 -20 -20 1 -20 -20 -20 -20 -20 -20 -20 -20 33 29 -4 -20 -20 -20 -20 -20 -20 -20
-20 -20 -20 -20 -20 -20 -20 -20 -20 -20 -20 -20 -20 -20 -20 -20 -20 -20 -20 -20 -20 -20 -20 -20 -20 -20 -20 -20 -20 -20 -20 -20 -20 42 33 -17 -20 -20 -20 -20 -20 -19 -17
-20 -20 -20 -20 -20 -20 -20 -20 -20 -20 -20 -20 -20 -20 -20 -20 -20 -20 -20 -20 -20 -20 -20 -20 -20 -20 -20 -20 -20 -20 -20 -20 -20 7 -18 -20 -20 -20 13 -20 4 -3 -20
-20 -15 -20 -20 -20 -20 -20 -20 -20 -20 -20 -20 -20 -20 -20 -20 -20 -20 -20 -20 -20 -20 -20 -20 -20 -20 -20 -20 -20 -20 -20 -20 -20 -15 -1 -20 -20 -16 -20 -20 -20 -20 -20
-20 -20 10 -20 -20 -20 -20 -20 -20 -20 -20 -20 -20 -20 -20 -20 -20 -20 -20 -20 -18 -20 -20 -20 -20 -20 -20 -20 -20 -20 -20 -20 -20 38 29 -14 -20 -20 -20 -20 -20 -20 -20
-20 -20 -7 -20 -20 -20 -20 -20 -20 -20 -20 -20 -20 -20 -20 -20 -20 -20 -20 -20 -20 -18 -20 -20 -20 -20 -20 -20 -20 -20 -20 -20 -20 14 19 14 -20 -20 -20 -5 -20 -17 -20
-20 -20 -20 -20 -9 -0 -20 -20 -20 -20 -20 -20 -20 -20 -20 -20 -20 -20 -20 -20 -20 -20 -20 -20 -20 -20 -20 -20 -20 -20 -20 -20 -20 -20 -20 18 -20 -20 -20 -20 28 -20 -20
-20 -18 -20 -20 -7 6 1 -20 -20 -20 -20 -20 -20 -20 -20 -20 -19 -20 -20 -20 -20 -20 -20 -20 -20 -20 -20 -20 -20 -20 -20 -20 -20 -20 -10 -20 -20 -20 -20 -20 -20 -17 -20
-20 -20 -12 8 -18 13 12 10 -14 -14 -18 -20 -20 -20 -20 -20 -20 -20 3 -20 -20 -20 -20 -20 -20 -20 -20 -20 -20 -20 -20 -20 -20 -20 -5 -18 -20 -20 -20 -20 -20 1 33
-20 -20 -20 -19 2 -13 -20 22 17 12 -3 -16 -18 -20 -20 -20 -20 -20 -20 3 -20 -20 -20 -20 -20 -20 -20 -20 -20 -19 -20 -20 -20 -6 19 -4 -20 -20 -20 -20 -20 -20 -11
-20 -20 -20 -20 -20 9 -19 -14 -8 13 22 -1 -10 -20 -20 -20 -20 -20 -20 2 -20 -20 -20 -20 14 -20 -20 -20 -20 -20 -20 -20 -20 -20 -20 -20 -20 -20 -20 -20 -19 -20 20
-20 -20 -20 -20 -20 -20 -16 -12 -20 -17 6 -4 2 11 -11 -20 -20 -20 -20 -20 -20 -20 -20 -20 13 10 10 1 -20 -20 -20 -20 -20 -20 -7 -20 -20 -20 -20 -20 -20 -20 26
-20 -20 -20 -20 -20 -20 -20 -20 3 31 -13 5 7 3 -20 -20 -20 -20 -20 -20 -20 -20 -20 -20 -20 14 0 -2 11 -20 -20 6 7 -20 -20 -16 -20 -20 -20 -20 -20 -20 -20
-20 -20 -20 -20 -20 -20 -20 -20 -20 -13 -18 -12 22 8 -20 -20 -20 -6 -20 -20 -20 -20 -20 -20 -20 -18 -12 -2 3 12 -0 -20 -20 -18 -20 -20 -10 -20 -20 -20 -20 -20 -20
-20 -20 -20 -20 -20 -20 -20 -20 -20 -20 -15 -20 -5 -5 7 -20 -20 -20 2 -20 -20 -20 -20 -20 -20 -20 4 3 12 10 10 -20 -20 -20 -20 5 -15 -20 -20 -20 -20 -20 -20
-20 -20 -20 -20 -20 -20 -20 -20 -20 -20 -20 -20 -20 34 29 -20 -20 -20 -20 -13 -20 -20 -20 -20 -20 -20 5 10 15 16 11 9 -20 -20 -12 -20 -20 -8 -18 -20 -20 -20 -20
-20 -20 -20 -20 -20 -20 -20 -20 -20 -20 -20 -20 -20 -6 -20 -20 -15 -20 -20 -20 -20 -20 -20 -20 -18 -20 -20 12 -19 13 10 8 2 -20 -12 6 5 -20 3 -13 8 -20 -20
-20 -20 -20 -20 -20 -20 -20 -20 -20 -20 -20 -20 -20 -20 -19 -20 -20 5 -20 -20 -20 -20 -20 -20 -20 -20 -20 -12 -20 -17 -0 -9 -20 -20 -20 -20 -20 -20 -20 -20 -20 -20 -20
-20 -20 -20 -20 -20 -20 -20 -20 -20 -20 -20 -20 -20 -20 7 -20 -20 2 10 -20 -19 -5 -6 -20 -20 -20 -13 -19 -12 -20 -20 -19 -20 -20 -20 -20 -20 -20 -20 -20 -20 -20 -20
-20 -20 -20 -20 -20 -20 -20 -20 -20 -20 -20 -20 -20 -20 -20 -20 -20 -16 36 -16 -4 -20 -2 -5 -19 -20 -20 -10 6 -20 -20 -20 -20 -18 13 -15 -19 -20 -20 -20 -20 -20 -20
-20 -20 -20 -20 -20 -20 -20 -20 -20 -20 -20 -20 -20 -20 -20 -20 -18 -9 -16 8 1 2 22 43 33 -17 -20 -16 -20 -7 -20 -11 -20 -20 -20 -2 -17 -20 -20 -20 -20 -20 -20

GFSSE_prec_radar_126.txt.gz
Reflectivity
-20 -20 -20 -20 -20 -20 -20 -20 -20 -20 -20 -20 -20 -20 -20 -20 -20 -20 -20 -20 -20 -20 -20 -20 -20 -20 -20 -20 -20 -20 -20 -20 -20 -20 -20 -20 -20 -20 -20 -20 -20 -20 -20
-20 -20 -20 -20 -20 -20 -20 -20 -20 -20 -20 -20 -20 -20 -20 -20 -20 -20 -20 -20 -20 -20 -20 -20 -20 -20 -20 -20 -20 -20 -20 -20 -20 -20 -20 -20 -20 -13 -20 -20 -20 -20 -20
-20 -20 -20 -20 -20 -20 -20 -20 -20 -20 -20 -20 -20 -20 -20 -20 -20 -20 -20 -20 -20 -20 -20 -20 -20 -20 -20 -20 -20 -20 -20 -20 -20 -20 -20 -20 -20 -20 -20 -20 -20 -20 -20
-20 -20 -20 -20 -20 -20 -20 -20 -20 -20 -20 -20 -20 -20 -20 -20 -20 -20 -20 -20 -20 -20 -20 -20 -20 -20 -20 -20 -20 -20 -20 -20 -20 -20 -20 -20 -20 -20 -20 -20 -20 -3 -20
-20 -20 -20 -20 -20 -20 -20 -20 -20 -20 -20 -20 -20 -20 -20 -20 -20 -20 -20 -20 -20 -20 -20 -20 -20 -20 -20 -20 -20 -20 -20 -20 -20 -20 -20 -20 -20 -8 -19 -20 -20 -3 -20
-20 -20 -20 -20 -20 -20 -20 -20 -20 -20 -20 -20 -20 -20 -20 -20 -20 -20 -20 -20 -20 -20 -20 -8 -18 -20 -20 -20 -20 -20 -20 -20 -20 -20 -20 -20 -20 -20 -20 -20 -20 -19 -18
-20 -20 -20 -20 -20 -20 -20 -20 -20 -20 -20 -20 -20 -20 -20 -20 -20 -20 -20 -20 -20 -20 -20 -8 -20 -20 -20 -20 -20 -20 -20 -20 -20 -20 -20 -15 -20 -14 -20 -20 -19 14 -13
-20 -20 -20 -20 -20 -20 -20 -20 -20 -20 -20 -20 -20 -20 -20 -20 -20 -20 -20 -20 -20 -20 -20 -20 -20 -20 -20 -20 -20 -20 -20 -20 -20 -20 -20 -20 -20 -15 1 -19 -19 -20 -20
-13 -20 -20 -20 -20 -20 -20 -20 -20 -20 -20 -20 -20 -20 -20 -20 -20 -20 -20 -20 -20 -20 -20 -20 -20 -20 -20 -20 -20 -20 -20 -20 -20 -20 -20 -8 -9 -20 -6 -12 -19 -20 -20
-7 -19 -20 -20 -20 -20 -20 -20 -20 -20 -20 -20 -20 -20 -20 -20 -20 -20 -20 -20 -20 -20 -20 -20 -20 -20 -20 -20 -20 -20 -20 -20 -20 -20 -20 -20 -20 -20 -20 -20 -5 -9 -20
-20 -20 -20 -20 -20 -20 -20 -20 -20 -20 -20 -20 -20 -20 -20 -20 -20 -20 -20 -20 -20 -20 -20 -20 -20 -20 -20 -20 -20 -20 -20 -20 -20 -20 -20 -20 -20 17 -20 -20 -20 -20 -20
-20 -20 -20 -20 -20 -20 -20 -20 -20 -20 -20 -20 -20 -20 -20 -20 -20 -20 -20 -20 -20 -20 -20 -20 -20 -20 -20 -20 -20 -20 -20 -20 -20 -20 -20 -20 -20 -9 -20 -20 -18 -20 -20
-20 -20 -20 -20 -20 -20 -20 -20 -20 -20 -20 -10 -11 -20 -20 -20 -20 -20 -20 -20 -20 -20 -20 -20 -20 -20 -20 -20 -20 -20 -20 -20 -20 -20 -20 -20 -20 -20 -20 -20 -20 -20 4
-20 -20 -20 -20 24 10 -15 -20 -20 -20 -20 -20 -20 -20 -20 -20 -20 -20 -20 -20 -20 -20 -20 -20 -20 -20 -20 -20 -20 -20 -20 -20 -20 -20 -20 -20 -20 12 -20 -13 -20 -20 -20
-20 -20 -20 -20 -4 2 -1 -17 10 14 16 6 -15 -18 -20 -20 -20 -20 -20 -20 -20 -20 -20 -20 -20 -20 -20 -20 -20 -20 -20 -20 -20 -20 -20 -20 -20 -9 -20 -20 -20 -20 -20
-20 -20 -20 -20 -20 -20 -20 -20 -20 -18 5 25 27 24 14 17 -5 -20 -20 -20 -20 -20 -20 -20 -20 -20 -20 -20 -20 -20 -20 -20 -20 -20 -20 -20 -20 -20 -20 -20 -20 -20 -20
-20 -20 -20 -20 -20 -20 -20 -20 -20 -17 22 19 22 36 19 34 24 33 -5 -20 -20 -20 -20 -20 -20 -20 -20 -20 -20 -20 -20 -20 -20 -20 -20 -20 -20 -20 -20 -20 -20 -18 -20
-20 -20 -20 -20 -20 -20 -20 -20 -20 -20 -20 -4 28 31 1 39 42 36 31 10 0 -20 -20 -20 -20 -20 -20 -20 -20 -20 -20 -20 -20 -20 -20 -20 -20 -20 -20 -20 -20 -20 -20
-20 -20 -20 -20 -20 -20 -20 -20 -20 -20 -20 -20 -20 2 21 18 35 42 34 27 8 -4 12 -6 -20 -20 -20 -20 -20 -20 -20 -20 -20 -20 -20 -20 -20 -20 -20 -20 -20 -20 -20
-20 -20 -20 -20 -20 -20 -20 -20 -20 -20 -20 -20 -20 -20 -20 4 25 39 40 40 30 29 27 4 -20 -20 -20 -20 -20 -20 -20 -20 -20 -20 -20 -20 -20 -20 -20 -20 -20 -16 -20
-20 -20 -20 -20 -20 -20 -20 -20 -20 -20 -20 -20 -20 -20 -20 -20 25 23 30 32 40 34 19 20 32 8 8 -9 9 -20 -20 -20 -20 -20 -20 -20 -20 -20 -20 -20 -20 -20 -20
-20 -20 -20 -20 -20 -20 -20 -20 -20 -20 -20 -20 -20 -20 -20 -20 -20 13 26 21 39 30 36 33 30 29 26 37 34 -13 -2 -18 13 3 -20 -20 -20 -20 -20 -20 -20 -20 -20
-20 -20 -20 -20 -20 -20 -20 -20 -20 -20 -20 -20 -20 -20 -20 -20 -20 -20 -15 19 29 32 44 38 15 26 24 23 32 30 1 -19 -20 -20 -20 -20 -20 -20 -20 -20 -20 -20 -20
-20 -20 -20 -20 -20 -20 -20 -20 -20 -20 -20 -20 -20 -20 -20 -20 -20 -20 -20 -20 21 25 29 27 -12 13 -14 22 32 15 27 -16 -20 -20 -20 -20 -20 -20 -20 -20 -20 -20 -20
-20 -20 -20 -20 -20 -20 -20 -20 -20 -20 -20 -20 -20 -20 -20 -20 -20 -20 -20 -20 8 -17 17 -7 -20 -18 -14 -14 -11 14 30 8 -15 -20 -20 -20 -20 -20 -20 -20 -20 -20 -20
-20 -20 -20 -20 -20 -20 -20 -20 -20 -20 -20 -20 -20 -20 -20 -20 -20 -20 -20 -20 -20 -20 -20 -9 -20 -14 -10 31 12 2 7 19 -7 5 -18 -20 -20 -20 -20 -20 -20 -20 -20

GFSSE_prec_radar_132.txt.gz
Reflectivity
-20 -20 -20 -20 -20 -20 -20 -20 -20 -20 -20 -20 -20 -20 -20 -20 -20 -20 -20 -20 -16 -3 -20 -20 -20 -20 -20 -20 -20 -20 -20 -20 -20 -20 -20 -0 -8 5 -20 -20 -20 -20 -14
-20 -20 -20 -20 -20 -20 -20 -20 -20 -20 -20 -20 -20 -20 -20 -20 -20 -20 -20 -20 -20 -2 3 -20 -20 -20 -20 -20 -20 -20 -20 -20 -20 -20 0 1 16 0 -14 -20 -20 -20 -20
-20 -20 -20 -20 -20 -20 -20 -20 -20 -20 -20 -20 -20 -20 -20 -20 -20 -20 -20 -20 -20 -20 -20 -20 -20 -20 -20 -20 -20 -20 -20 -20 -20 -20 -1 -8 2 5 -20 -20 -20 -20 -20
-20 -20 -20 -20 -20 -20 -20 -20 -20 -20 -20 -20 -20 -20 -20 -20 -20 -20 -20 -20 -20 -20 -20 -20 -20 -20 -20 -20 -20 -20 -20 -20 -20 -20 -20 -20 -15 -0 -20 -20 -20 -20 5
-20 -20 -20 -20 -20 -20 -20 -20 -20 -20 -20 -20 -20 -20 -20 -20 -20 -20 -20 -20 -20 -20 -20 -20 -20 -20 -20 -20 -20 -20 -20 -20 -20 -20 -20 -20 -20 -20 -20 -20 -20 -20 -20
-20 -20 -20 -20 -20 -20 -20 -20 -20 -20 -20 -20 -20 -20 -20 -20 -20 -20 -20 -20 -20 -20 -20 -20 -20 -20 -20 -20 -20 -20 -20 -20 -20 -20 -20 -20 -20 -20 -20 -20 -20 -20 -20
-20 -20 -20 -20 -20 -20 -20 -20 -20 -20 -20 -20 -20 -20 -20 -20 -20 -20 -20 -20 -20 -9 -20 -3 -20 -20 -20 -20 -20 -20 -20 -20 -20 -20 -20 -20 -20 -15 -20 -20 -20 -20 -20
-20 -20 -20 -20 -20 -20 -20 -20 -20 -20 -20 -20 -20 -20 -20 -20 -20 -20 -20 -20 -20 -20 -20 -20 -20 -20 -20 -20 -20 -20 -20 -20 -20 -20 -20 -20 -20 -20 -20 -20 -20 -20 -18
-20 -20 -20 -20 -20 -20 -20 -20 -20 -20 -20 -20 -20 -20 -20 -20 -20 -20 -20 -20 -20 -20 -20 -20 -20 -20 -20 -20 -20 -20 -20 -20 -20 -20 -20 -20 -20 -20 -20 -20 -20 -20 -20
-20 -20 -20 -20 -20 -20 -20 -20 -20 -15 -20 -20 -20 -20 -20 -20 -20 -20 -20 -20 -20 -20 -20 -20 -20 -20 -20 -20 -20 -20 -20 -20 -20 -20 -20 -20 -20 -20 -20 -20 -12 -20 -20
-20 -20 -20 -20 -20 -20 -6 -20 -20 -16 -19 -4 -20 -20 -2 -20 -20 -20 -20 -20 -20 -20 -20 -20 -20 -20 -20 -20 -20 -20 -20 -20 -20 -20 -20 -20 -20 -20 -20 -15 -20 -1 -14
-20 -20 -16 -13 -20 1 -20 -20 -20 -20 -17 14 15 -20 -20 -20 -20 -20 -20 -20 -20 -20 -20 -20 -20 -20 -20 -20 -20 -20 -20 -20 -20 -20 -20 -20 -20 -20 -20 -16 -20 -11 5
-20 -20 -20 -20 -20 -20 -20 -20 -20 -15 -20 -10 28 31 9 2 -7 -17 -20 -20 -20 -20 -20 -20 -20 -20 -20 -20 -20 -20 -20 -20 -20 -20 -20 -20 -20 -20 -20 -20 -20 -20 -15
-20 -20 -20 -20 -20 -20 -20 -20 -20 -20 -20 -15 -11 -19 18 27 25 1 -16 -10 -20 -20 -20 -17 -10 -20 -20 -20 -20 -20 -20 -20 -20 -20 -20 -20 -20 -20 -20 -20 -20 -20 -3
-20 -20 -20 -20 -20 -20 -20 -20 -20 -20 -20 -20 10 -0 3 17 12 14 5 12 10 -19 -4 -20 -15 -7 -10 -20 -20 -20 -20 -20 -20 -20 -20 -20 -20 -20 -20 -17 -20 -20 -15
-20 -20 -20 -20 -20 -20 -20 -20 -20 -20 -20 -20 -20 -20 -20 24 32 8 -7 26 -8 -13 5 -2 -5 -4 20 7 -20 -20 -20 -20 -20 -20 -20 -20 -20 -20 -20 -20 -20 -20 -20
-20 -20 -20 -20 -20 -20 -20 -20 -20 -20 -20 -20 -20 -20 -20 -20 -0 -10 30 20 31 5 15 -1 -18 -20 7 26 -9 -20 -20 -20 -20 -20 -20 -20 -20 -20 -20 -20 -20 -20 -20
-20 -20 -20 -20 -20 -20 -20 -20 -20 -20 -20 -20 -20 -20 -20 -20 -20 -20 -20 8 30 26 25 22 -14 -9 -2 15 9 26 5 -20 -20 -20 -20 -20 -20 -20 -20 -20 -20 -20 -20
-20 -20 -20 -20 -20 -20 -20 -20 -20 -20 -20 -20 -20 -20 -20 -20 -20 -20 -20 -20 16 37 48 48 28 3 13 8 13 17 30 -20 -20 -20 -20 -20 -20 -20 -20 -20 -20 -20 -20
-20 -20 -20 -20 -20 -20 -20 -20 -20 -20 -20 -20 -20 -20 -20 -20 -20 -20 -20 -20 -20 -20 2 15 45 31 27 12 -5 28 16 -7 -1 -20 -20 -20 -20 -20 -20 -20 -20 -20 -20
-20 -20 -20 -20 -20 -20 -20 -20 -20 -20 -20 -20 -20 -20 -20 -20 -20 -20 -20 -20 -20 -20 -20 -10 29 24 7 21 29 -2 13 12 3 -9 -20 -8 -20 -20 -20 -20 -20 -20 -20
-20 -20 -20 -20 -20 -20 -20 -20 -20 -20 -20 -20 -20 -20 -20 -20 -20 -20 -20 -20 -20 -20 -20 -15 -17 -0 28 36 33 29 28 21 -5 13 -13 -20 -20 -20 -20 -20 -20 -20 -20
-20 -20 -20 -20 -20 -20 -20 -20 -20 -20 -20 -20 -20 -20 -20 -20 -20 -20 -20 -20 -20 -20 -20 -20 -3 -20 15 35 34 30 30 25 7 19 -10 -20 -19 -20 -20 -20 -20 -20 -20
-20 -20 -20 -20 -20 -20 -20 -20 -20 -20 -20 -20 -20 -20 -20 -20 -20 -20 -20 -20 -20 -20 -20 -20 -20 14 7 15 25 46 30 36 33 29 7 -17 -15 -20 -20 -20 -20 -20 -20
-20 -20 -20 -20 -20 -20 -20 -20 -20 -20 -20 -20 -20 -20 -20 -20 -20 -20 -20 -20 -20 -20 -20 -20 -20 -19 5 -20 -1 21 29 15 36 34 22 -20 -6 -6 12 -6 -13 -20 -20
-20 -20 -20 -7 -20 -20 -20 -20 -20 -20 -20 -20 -20 -20 -20 -20 -20 -20 -20 -20 -20 -20 -19 -15 7 -14 8 -20 -0 23 34 36 33 42 28 -16 -20 -9 8 -20 12 -2 -9

GFSSE_prec_radar_138.txt.gz
Reflectivity
-20 -20 -20 -20 -20 -20 -20 -20 -20 -20 -20 -20 -20 -20 -20 -20 -20 -20 -20 -20 -5 -20 -20 -20 -20 -20 -20 -20 -20 -20 -20 -20 -20 -20 -20 -2 -5 -20 -20 -20 -20 -20 -7
-20 -20 -20 -20 -20 -20 -20 -20 -20 -20 -20 -20 -20 -20 -20 -20 -20 -20 -20 -20 -20 -20 -20 -20 -20 -20 -20 -20 -20 -20 -20 -20 -20 -20 -20 1 -10 -15 -20 -20 -17 -20 -19
-20 -20 -20 -20 -20 -20 -20 -20 -20 -20 -20 -20 -20 -20 -20 -20 -20 -20 -20 -20 -20 -20 -20 -20 -20 -20 -20 -20 -20 -20 -20 -20 -20 -20 -20 -19 5 -1 -20 -20 -20 -20 -20
-20 -20 -20 -20 -20 -20 -20 -20 -20 -20 -20 -20 -20 -20 -20 -20 -20 -20 -20 -20 -20 -20 -20 -20 -20 -20 -20 -20 -20 -20 -20 -20 -20 -20 -20 -20 -20 -16 -20 -20 -20 -20 -20
-20 -20 -20 -20 -20 -20 -20 -20 -20 -20 -20 -20 -20 -20 -20 -20 -20 -20 -20 -20 -20 -20 -20 -20 -20 -20 -20 -20 -20 -20 -20 -20 -20 -20 -20 -16 14 -20 -20 -20 -20 -20 -20
-20 -20 -19 -20 -20 -20 -20 -20 -20 -20 -20 -20 -20 -20 -20 -19 -2 -20 -20 -20 -20 -20 -20 -20 -20 -20 -20 -20 -20 -20 -20 -20 -20 -20 -20 -3 -20 -7 -20 -20 -10 -20 -20
-20 -20 -20 -20 -20 -20 -20 -20 -20 -20 -20 -20 -20 -20 -20 -13 -20 25 -19 -20 -20 -20 -20 -20 -20 -20 -20 -20 -20 -20 -20 -20 -20 -20 -20 -20 -20 -20 -20 -20 -18 -20 -20
-17 -11 4 5 -20 -20 -20 -19 -11 -20 -20 -20 -20 -20 -20 -20 -20 -20 -20 -20 -20 -20 -20 -20 -20 -20 -20 -20 -20 -20 -20 -20 -20 -20 -20 -20 -18 -20 -20 -20 -19 -18 -8
-20 -20 -20 -8 -12 9 -4 -20 -20 -4 -20 -20 -20 -20 -20 -20 -20 -20 -20 -20 -19 -15 -20 -20 -20 -20 -20 -20 -20 -20 -20 -20 -20 -20 -20 -20 -20 -20 -20 -20 19 -20 -20
-20 -20 -20 -20 -20 3 -20 -10 -20 -8 -20 -20 -20 -14 -20 -20 -20 -15 -20 -20 -20 -20 -20 1 -20 -20 -20 -20 -20 -20 -20 -20 -20 -20 -20 -20 -20 -20 -20 -20 -20 -20 -20
-20 -20 -20 -20 -20 -20 -12 -6 8 6 -1 -20 -10 -20 -17 -14 -1 -11 -20 -20 -20 -20 -20 -20 -16 -20 -20 -20 -20 -20 -16 -3 -20 -20 -20 -20 -20 -20 -20 -20 -20 -20 -20
-20 -20 -20 -20 -20 -20 -20 -20 -20 -20 -11 -4 -11 1 15 10 14 -7 10 -7 -20 -20 -7 -2 -20 -20 -20 -20 -20 -20 -4 -20 -20 -20 -20 -20 -20 -20 -20 -20 -20 -20 -20
-20 -20 -20 -20 -20 -20 -20 -20 -20 -20 -20 -20 -20 -7 -10 15 3 -4 29 28 -18 -17 -5 -11 -19 -20 -4 -20 -20 22 -20 -20 -20 -20 -20 -20 -20 -20 -20 21 -20 -20 -20
-20 -20 -20 -20 -20 -20 -20 -20 -20 -20 -20 -20 -20 -20 -20 -20 -4 12 32 34 1 28 2 9 6 10 30 -16 -20 -20 -19 -20 -20 -20 -20 -20 -20 -20 -20 -20 -20 -20 -20
-20 -20 -20 -20 -20 -20 -20 -20 -20 -20 -20 -20 -20 -20 -20 -20 -20 -20 -20 2 1 32 19 1 31 18 11 14 27 12 9 -15 -20 -20 -20 -20 -20 -20 -20 -20 -2 -20 -20
-20 -20 -20 -20 -20 -20 -20 -20 -20 -20 -20 -20 -20 -20 -20 -20 -20 -20 -20 -13 -0 18 28 30 20 22 -0 30 26 19 -1 16 25 -20 -20 -20 -20 -20 -20 -20 -20 -20 -20
-20 -20 -20 -20 -20 -20 -20 -20 -20 -20 -20 -20 -20 -20 -20 -20 -20 -20 -20 -20 -10 -1 11 6 32 25 20 28 35 25 12 22 -17 18 -20 -20 -20 -20 -20 -20 -20 -20 -11
-20 -20 -20 -20 -20 -20 -20 -20 -20 -20 -20 -20 -20 -20 -20 -20 -20 -20 -20 -20 -20 -20 -13 -7 -20 13 38 30 11 34 25 24 24 25 26 -12 -20 -20 -20 -20 -20 -20 -20
-20 -20 -20 -20 -20 -20 -20 -20 -20 -20 -20 -20 -20 -20 -20 -20 -20 -20 -20 -20 -20 -20 -20 -13 -8 -20 -20 8 32 35 23 39 24 -0 25 24 -20 -4 -20 -20 -20 -20 -20
-20 -20 -20 -20 -20 -20 -20 -20 -20 -20 -20 -20 -20 -20 -20 -20 -20 -20 -20 -20 -20 -20 -20 -20 -16 -20 -20 -20 -20 -20 -19 16 32 26 27 25 25 -18 8 -10 -20 -20 -20
-20 -20 -20 -20 -20 -20 -20 -20 -20 -20 -20 -20 -20 -20 -20 -20 -20 -20 -20 -20 -20 -20 -20 -20 -20 -20 -14 -20 -10 -20 -13 8 32 1 22 24 24 -5 1 -9 6 -20 -20
-20 -20 -20 -20 -20 -20 -20 -20 -20 -20 -20 -20 -20 -20 -20 -20 -20 -20 -20 -20 -20 -20 -20 -20 -20 -20 -20 -20 -18 12 7 -20 -5 -2 -5 6 17 9 -16 -14 12 -15 -20
-20 -20 -20 -20 -20 -20 -20 -20 -20 -20 -20 -20 -20 -20 -20 -20 -20 -0 -20 -20 -20 -20 -20 -20 -20 -20 -20 -20 9 -20 -2 -18 -20 -17 -5 -4 -9 3 -15 -5 11 8 -16
-20 -20 -20 -20 -20 -20 -20 -20 -20 -20 -20 -20 -20 -20 -20 -20 -20 -20 -20 -20 -20 -20 -20 -20 -20 -20 -20 -20 -20 8 -8 -20 -20 -20 -6 18 -20 -20 -20 10 6 3 8
-20 -20 -20 -20 -20 -20 -20 -14 -20 -20 -20 -20 -20 -20 -20 -20 -20 -20 -20 -20 -20 -0 -1 -19 -20 -18 -20 -20 -20 -15 19 9 -18 19 6 18 21 -10 -19 19 2 24 5
-20 -20 -20 -20 -20 -20 -20 -20 -20 -16 -20 -15 -15 -13 -19 -20 -13 1 -11 6 5 3 -6 -4 -3 -5 -14 -18 -20 -14 14 2 24 11 18 1 17 19 5 -13 -10 25 22

GFSSE_prec_radar_141.txt.gz
Reflectivity
-20 -20 -20 -20 -20 -20 -20 -20 -20 -20 -20 -20 -20 -20 -20 -20 -20 -20 -20 -20 -20 -20 -20 -20 -20 -20 -20 -20 -20 -20 -20 -20 -20 -20 -20 -20 -20 -20 -20 -20 -20 -20 -20
-20 -20 -20 -20 -20 -20 -20 -20 -20 -20 -20 -20 -20 -20 -20 -20 -20 -20 -20 -20 -20 -20 -20 -20 -20 -20 -20 -20 -20 -20 -20 -20 -20 -20 -20 -20 -20 -20 -20 -20 -18 -20 -20
-20 -20 -20 -20 -20 -20 -20 -20 -20 -20 -20 -20 -20 -20 -20 -20 -20 -20 -20 -20 -20 -20 -20 -20 -20 -20 -20 -20 -20 -20 -20 -20 -20 -20 -20 -20 -20 -20 -20 -20 -20 -20 -20
-20 -20 -20 -20 -20 -20 -20 -20 -20 -20 -20 -20 -20 -20 -20 -20 -20 -20 -20 -20 -20 -20 -20 -20 -20 -20 -20 -20 -20 -20 -20 -20 -20 -20 -20 -20 -20 -20 -20 -20 -20 -20 -20
-20 -20 -20 -20 -20 -20 -20 -20 -20 -20 -20 -20 -20 -20 -20 -20 -20 -20 -20 -20 -20 -20 -20 -20 -20 -20 -20 -20 -20 -20 -20 -20 -20 -20 -15 -6 -19 -20 -20 -20 -20 -20 -20
-20 -20 -20 -20 -20 -7 1 -20 -20 -20 -20 -20 -20 -20 -20 -20 -20 -20 -20 -20 -20 -20 -20 -20 -20 -20 -20 -20 -20 -20 -20 -20 -20 -20 27 11 -19 18 -20 -20 -20 -20 -20
-20 -20 -20 -20 -20 -20 -20 -20 -16 -20 -20 -20 -20 -20 -20 -20 -19 -20 26 -20 -20 -20 -20 -20 -20 -20 -20 -20 -20 -20 -20 -20 -20 -20 8 -10 -20 -16 -14 -20 -20 -20 -20
-20 -20 -20 -2 2 -16 -20 -20 -20 -20 -20 -20 -20 -20 -20 -20 -19 -17 -20 -20 -20 -20 -19 -20 -20 -20 -20 -20 -20 -20 -20 -20 -20 -20 -20 11 -10 -20 -20 6 -20 -20 -20
-20 -20 -20 -20 -8 7 5 -20 -20 1 -8 -20 -20 -20 -20 -20 -20 -20 -17 -20 -14 -20 -20 -20 -20 -20 -20 -20 -20 -20 -20 -20 -20 -20 5 8 -20 -6 -20 -20 -20 -20 -20
-20 -20 -20 -20 -20 -20 -20 -18 -4 -12 -20 -20 -20 -20 -20 -16 -20 -20 -20 -20 -8 -20 -20 -20 -20 -20 -20 -20 -20 -20 -20 -20 -20 -20 8 -20 -20 -20 -20 -20 -20 -20 -20
-20 -20 -20 -20 -20 -20 -20 -16 -3 4 -20 -20 -20 -20 -11 -14 24 -6 -18 -18 -20 2 -20 -20 -20 -20 -20 -20 -20 -20 -20 -20 -20 -20 15 -13 -20 -20 -20 -20 -20 -20 -20
-20 -20 -20 -20 -20 -20 -20 -20 -20 -20 -20 -20 -20 -20 -20 -2 34 24 36 20 26 -19 -20 -20 -20 -20 -17 -19 -20 -20 -20 -20 -20 -20 0 -13 -20 -20 -20 -20 -20 -20 -20
-20 -20 -20 -20 -20 -20 -20 -20 -20 -20 -20 -20 -20 -20 -20 -20 -16 24 3 11 5 35 32 -12 -20 -20 -18 -18 -20 -20 -20 -20 -20 -20 30 -16 -20 -20 -20 -20 -20 -20 -20
-20 -20 -20 -20 -20 -20 -20 -20 -20 -20 -20 -20 -20 -20 -20 -20 -20 -20 -20 2 -16 33 24 31 15 22 -9 1 17 4 7 -17 -20 -19 -19 -14 -20 -20 -20 -20 -20 -20 -20
-20 -20 -20 -20 -20 -20 -20 -20 -20 -20 -20 -20 -20 -20 -20 -20 -20 -20 -20 -20 -10 8 19 12 29 14 25 3 13 21 4 7 -20 -20 27 24 1 -6 -19 -20 -20 -20 -20
-20 -20 -20 -20 -20 -20 -20 -20 -20 -20 -20 -20 -20 -20 -20 -20 -20 -20 -20 -20 -20 -20 -2 1 15 33 -6 33 30 26 9 24 20 -19 -20 28 -18 32 -19 -20 -20 -20 -20
-20 -20 -20 -20 -20 -20 -20 -20 -20 -20 -20 -20 -20 -20 -20 -20 -20 -20 -20 -20 -20 -20 -17 -3 6 -20 -19 30 23 18 32 25 35 31 8 12 28 -20 4 -6 -20 -19 -20
-20 -20 -20 -20 -20 -20 -20 -20 -20 -20 -20 -20 -20 -20 -20 -20 -20 -20 -20 -20 -20 -20 -20 -20 -20 -20 -20 -20 -20 -8 21 13 40 48 30 7 -16 1 -7 -0 -20 -20 -16
-20 -20 -20 -20 -20 -20 -20 -20 -20 -20 -20 -20 -20 -20 -20 -20 -20 -20 -20 -20 -20 -20 -20 -20 -20 -20 -20 -20 -20 -20 -20 -18 24 31 25 21 23 18 18 11 -19 -20 -20
-20 -20 -20 -20 -20 -20 -20 -20 -20 -20 -20 -20 -20 -20 -20 -20 -20 -20 -20 -20 -20 -20 -20 -20 -20 -20 -20 -20 -20 -20 -20 -20 -7 -1 21 4 9 29 7 19 28 6 -20
-20 -20 -20 -20 -20 -20 -20 -20 -20 -20 -20 -20 -20 -20 -20 -20 -20 -20 -20 -20 -20 -20 -20 -20 -20 -20 -20 -20 -20 -20 -20 -20 -20 -20 -20 -20 -16 -12 -3 -7 20 15 -15
-20 -20 -20 -20 -20 -20 -20 -20 -20 -20 -20 -20 -20 -20 -20 -20 -20 -20 -20 -20 -20 -20 -20 -20 -20 -20 -20 -20 -20 -20 -20 -20 -20 -20 -20 -13 -20 23 23 -18 -11 13 11
-20 -20 -20 -20 -20 -20 -20 -20 -20 -20 -20 -20 -20 -20 -20 -20 -20 -20 -20 -20 -12 -20 -20 -20 -20 -20 -20 -20 -20 -20 -6 -20 -20 -20 -20 -20 19 -18 23 7 -20 -5 -18
-20 -20 -20 -20 -20 -20 -20 -20 -20 -20 -20 -20 -20 -20 -20 -20 -20 -20 -20 -20 -18 -8 -20 -20 -20 -20 -20 -20 -20 -20 -3 -13 -6 11 -20 -20 -20 -20 14 -12 -20 -13 -20
-20 -20 -20 -20 -20 -20 -20 -20 -20 -20 -20 -20 -20 -20 -20 -20 -20 -20 -4 5 3 5 1 -1 -20 -20 -20 -20 -20 -20 -20 -20 13 20 -3 9 26 20 21 -20 -17 -11 -20
-20 -20 -20 -20 -20 -20 -20 -20 -20 -20 -20 -20 -15 -13 -10 -7 0 -1 -8 4 4 0 -16 3 -3 -5 -18 -19 -20 -20 -20 -20 -14 13 15 -8 -12 19 -5 20 23 25 -15